owner,sensor,date,latitude,longitude,vertical_datum,wind_speed,wind_to_direction,wind_speed_of_gust,qcFlag 
DISL,ioos:station:DISL:BSCA:1,2014-07-01T00:00:00Z,30.3288,-87.8293,0.0,5.87,256.6,-9999.0,'1111122,1111122,1111122' 
DISL,ioos:station:DISL:BSCA:1,2014-07-01T00:30:00Z,30.3288,-87.8293,0.0,5.59,250.5,-9999.0,'1111122,1111122,1111122' 
DISL,ioos:station:DISL:BSCA:1,2014-07-01T01:00:00Z,30.3288,-87.8293,0.0,5.21,260.9,-9999.0,'1111122,1111122,1111122' 
DISL,ioos:station:DISL:BSCA:1,2014-07-01T01:30:00Z,30.3288,-87.8293,0.0,5.01,266.4,-9999.0,'1111122,1111122,1111122' 
DISL,ioos:station:DISL:BSCA:1,2014-07-01T02:00:00Z,30.3288,-87.8293,0.0,4.96,267.7,-9999.0,'1111122,1111122,1111122' 
DISL,ioos:station:DISL:BSCA:1,2014-07-01T02:30:00Z,30.3288,-87.8293,0.0,4.24,266.1,-9999.0,'1111122,1111122,1111122' 
DISL,ioos:station:DISL:BSCA:1,2014-07-01T03:00:00Z,30.3288,-87.8293,0.0,4.62,264.6,-9999.0,'1111122,1111122,1111122' 
DISL,ioos:station:DISL:BSCA:1,2014-07-01T03:30:00Z,30.3288,-87.8293,0.0,4.98,269.2,-9999.0,'1111122,1111122,1111122' 
DISL,ioos:station:DISL:BSCA:1,2014-07-01T04:00:00Z,30.3288,-87.8293,0.0,5.63,267.0,-9999.0,'1111122,1111122,1111122' 
DISL,ioos:station:DISL:BSCA:1,2014-07-01T04:30:00Z,30.3288,-87.8293,0.0,6.21,268.1,-9999.0,'1111122,1111122,1111122' 
DISL,ioos:station:DISL:BSCA:1,2014-07-01T05:00:00Z,30.3288,-87.8293,0.0,7.36,266.1,-9999.0,'1111122,1111122,1111122' 
DISL,ioos:station:DISL:BSCA:1,2014-07-01T05:30:00Z,30.3288,-87.8293,0.0,7.46,262.7,-9999.0,'1111122,1111122,1111122' 
DISL,ioos:station:DISL:BSCA:1,2014-07-01T06:00:00Z,30.3288,-87.8293,0.0,6.87,263.0,-9999.0,'1111122,1111122,1111122' 
DISL,ioos:station:DISL:BSCA:1,2014-07-01T06:30:00Z,30.3288,-87.8293,0.0,7.36,261.0,-9999.0,'1111122,1111122,1111122' 
DISL,ioos:station:DISL:BSCA:1,2014-07-01T07:00:00Z,30.3288,-87.8293,0.0,7.8,267.0,-9999.0,'1111122,1111122,1111122' 
DISL,ioos:station:DISL:BSCA:1,2014-07-01T07:30:00Z,30.3288,-87.8293,0.0,7.6,272.2,-9999.0,'1111122,1111122,1111122' 
DISL,ioos:station:DISL:BSCA:1,2014-07-01T08:00:00Z,30.3288,-87.8293,0.0,7.04,274.2,-9999.0,'1111122,1111122,1111122' 
DISL,ioos:station:DISL:BSCA:1,2014-07-01T08:30:00Z,30.3288,-87.8293,0.0,6.26,294.9,-9999.0,'1111122,1111122,1111122' 
DISL,ioos:station:DISL:BSCA:1,2014-07-01T09:00:00Z,30.3288,-87.8293,0.0,6.25,292.9,-9999.0,'1111122,1111122,1111122' 
DISL,ioos:station:DISL:BSCA:1,2014-07-01T09:30:00Z,30.3288,-87.8293,0.0,4.83,306.3,-9999.0,'1111122,1111122,1111122' 
DISL,ioos:station:DISL:BSCA:1,2014-07-01T10:00:00Z,30.3288,-87.8293,0.0,4.42,303.8,-9999.0,'1111122,1111122,1111122' 
DISL,ioos:station:DISL:BSCA:1,2014-07-01T10:30:00Z,30.3288,-87.8293,0.0,5.9,311.7,-9999.0,'1111122,1111122,1111122' 
DISL,ioos:station:DISL:BSCA:1,2014-07-01T11:00:00Z,30.3288,-87.8293,0.0,6.18,321.9,-9999.0,'1111122,1111122,1111122' 
DISL,ioos:station:DISL:BSCA:1,2014-07-01T11:30:00Z,30.3288,-87.8293,0.0,6.27,316.6,-9999.0,'1111122,1111122,1111122' 
DISL,ioos:station:DISL:BSCA:1,2014-07-01T12:00:00Z,30.3288,-87.8293,0.0,6.27,319.8,-9999.0,'1111122,1111122,1111122' 
DISL,ioos:station:DISL:BSCA:1,2014-07-01T12:30:00Z,30.3288,-87.8293,0.0,7.34,316.4,-9999.0,'1111122,1111122,1111122' 
DISL,ioos:station:DISL:BSCA:1,2014-07-01T13:00:00Z,30.3288,-87.8293,0.0,7.98,323.3,-9999.0,'1111122,1111122,1111122' 
DISL,ioos:station:DISL:BSCA:1,2014-07-01T13:30:00Z,30.3288,-87.8293,0.0,8.01,326.4,-9999.0,'1111122,1111122,1111122' 
DISL,ioos:station:DISL:BSCA:1,2014-07-01T14:00:00Z,30.3288,-87.8293,0.0,6.67,325.5,-9999.0,'1111122,1111122,1111122' 
DISL,ioos:station:DISL:BSCA:1,2014-07-01T14:30:00Z,30.3288,-87.8293,0.0,6.12,324.5,-9999.0,'1111122,1111122,1111122' 
DISL,ioos:station:DISL:BSCA:1,2014-07-01T15:00:00Z,30.3288,-87.8293,0.0,5.35,328.0,-9999.0,'1111122,1111122,1111122' 
DISL,ioos:station:DISL:BSCA:1,2014-07-01T15:30:00Z,30.3288,-87.8293,0.0,4.27,320.3,-9999.0,'1111122,1111122,1111122' 
DISL,ioos:station:DISL:BSCA:1,2014-07-01T16:00:00Z,30.3288,-87.8293,0.0,4.76,323.3,-9999.0,'1111122,1111122,1111122' 
DISL,ioos:station:DISL:BSCA:1,2014-07-01T16:30:00Z,30.3288,-87.8293,0.0,5.27,316.7,-9999.0,'1111122,1111122,1111122' 
DISL,ioos:station:DISL:BSCA:1,2014-07-01T17:00:00Z,30.3288,-87.8293,0.0,4.84,323.4,-9999.0,'1111122,1111122,1111122' 
DISL,ioos:station:DISL:BSCA:1,2014-07-01T17:30:00Z,30.3288,-87.8293,0.0,4.86,317.4,-9999.0,'1111122,1111122,1111122' 
DISL,ioos:station:DISL:BSCA:1,2014-07-01T18:00:00Z,30.3288,-87.8293,0.0,4.63,308.8,-9999.0,'1111122,1111122,1111122' 
DISL,ioos:station:DISL:BSCA:1,2014-07-01T18:30:00Z,30.3288,-87.8293,0.0,4.14,293.8,-9999.0,'1111122,1111122,1111122' 
DISL,ioos:station:DISL:BSCA:1,2014-07-01T19:00:00Z,30.3288,-87.8293,0.0,5.33,292.7,-9999.0,'1111122,1111122,1111122' 
DISL,ioos:station:DISL:BSCA:1,2014-07-01T19:30:00Z,30.3288,-87.8293,0.0,5.32,294.3,-9999.0,'1111122,1111122,1111122' 
DISL,ioos:station:DISL:BSCA:1,2014-07-01T20:00:00Z,30.3288,-87.8293,0.0,4.44,300.5,-9999.0,'1111122,1111122,1111122' 
DISL,ioos:station:DISL:BSCA:1,2014-07-01T20:30:00Z,30.3288,-87.8293,0.0,4.48,299.3,-9999.0,'1111122,1111122,1111122' 
DISL,ioos:station:DISL:BSCA:1,2014-07-01T21:00:00Z,30.3288,-87.8293,0.0,5.59,269.9,-9999.0,'1111122,1111122,1111122' 
DISL,ioos:station:DISL:BSCA:1,2014-07-01T21:30:00Z,30.3288,-87.8293,0.0,5.82,259.2,-9999.0,'1111122,1111122,1111122' 
DISL,ioos:station:DISL:BSCA:1,2014-07-01T22:00:00Z,30.3288,-87.8293,0.0,5.95,258.7,-9999.0,'1111122,1111122,1111122' 
DISL,ioos:station:DISL:BSCA:1,2014-07-01T22:30:00Z,30.3288,-87.8293,0.0,6.84,256.7,-9999.0,'1111122,1111122,1111122' 
DISL,ioos:station:DISL:BSCA:1,2014-07-01T23:00:00Z,30.3288,-87.8293,0.0,6.53,261.2,-9999.0,'1111122,1111122,1111122' 
DISL,ioos:station:DISL:BSCA:1,2014-07-01T23:30:00Z,30.3288,-87.8293,0.0,6.3,269.9,-9999.0,'1111122,1111122,1111122' 
DISL,ioos:station:DISL:BSCA:1,2014-07-02T00:00:00Z,30.3288,-87.8293,0.0,6.34,277.6,-9999.0,'1111122,1111122,1111122' 
DISL,ioos:station:DISL:BSCA:1,2014-07-02T00:30:00Z,30.3288,-87.8293,0.0,6.68,272.1,-9999.0,'1111122,1111122,1111122' 
DISL,ioos:station:DISL:BSCA:1,2014-07-02T01:00:00Z,30.3288,-87.8293,0.0,7.26,276.1,-9999.0,'1111122,1111122,1111122' 
DISL,ioos:station:DISL:BSCA:1,2014-07-02T01:30:00Z,30.3288,-87.8293,0.0,7.42,274.9,-9999.0,'1111122,1111122,1111122' 
DISL,ioos:station:DISL:BSCA:1,2014-07-02T02:00:00Z,30.3288,-87.8293,0.0,7.28,273.1,-9999.0,'1111122,1111122,1111122' 
DISL,ioos:station:DISL:BSCA:1,2014-07-02T02:30:00Z,30.3288,-87.8293,0.0,6.24,260.5,-9999.0,'1111122,1111122,1111122' 
DISL,ioos:station:DISL:BSCA:1,2014-07-02T03:00:00Z,30.3288,-87.8293,0.0,6.1,262.4,-9999.0,'1111122,1111122,1111122' 
DISL,ioos:station:DISL:BSCA:1,2014-07-02T03:30:00Z,30.3288,-87.8293,0.0,6.21,259.4,-9999.0,'1111122,1111122,1111122' 
DISL,ioos:station:DISL:BSCA:1,2014-07-02T04:00:00Z,30.3288,-87.8293,0.0,6.58,267.7,-9999.0,'1111122,1111122,1111122' 
DISL,ioos:station:DISL:BSCA:1,2014-07-02T04:30:00Z,30.3288,-87.8293,0.0,5.79,281.3,-9999.0,'1111122,1111122,1111122' 
DISL,ioos:station:DISL:BSCA:1,2014-07-02T05:00:00Z,30.3288,-87.8293,0.0,7.23,304.8,-9999.0,'1111122,1111122,1111122' 
DISL,ioos:station:DISL:BSCA:1,2014-07-02T05:30:00Z,30.3288,-87.8293,0.0,7.21,318.8,-9999.0,'1111122,1111122,1111122' 
DISL,ioos:station:DISL:BSCA:1,2014-07-02T06:00:00Z,30.3288,-87.8293,0.0,6.16,330.4,-9999.0,'1111122,1111122,1111122' 
DISL,ioos:station:DISL:BSCA:1,2014-07-02T06:30:00Z,30.3288,-87.8293,0.0,6.07,320.1,-9999.0,'1111122,1111122,1111122' 
DISL,ioos:station:DISL:BSCA:1,2014-07-02T07:00:00Z,30.3288,-87.8293,0.0,5.71,324.5,-9999.0,'1111122,1111122,1111122' 
DISL,ioos:station:DISL:BSCA:1,2014-07-02T07:30:00Z,30.3288,-87.8293,0.0,5.24,328.9,-9999.0,'1111122,1111122,1111122' 
DISL,ioos:station:DISL:BSCA:1,2014-07-02T08:00:00Z,30.3288,-87.8293,0.0,4.96,338.9,-9999.0,'1111122,1111122,1111122' 
DISL,ioos:station:DISL:BSCA:1,2014-07-02T08:30:00Z,30.3288,-87.8293,0.0,4.54,356.4,-9999.0,'1111122,1111122,1111122' 
DISL,ioos:station:DISL:BSCA:1,2014-07-02T09:00:00Z,30.3288,-87.8293,0.0,4.37,6.749,-9999.0,'1111122,1111122,1111122' 
DISL,ioos:station:DISL:BSCA:1,2014-07-02T09:30:00Z,30.3288,-87.8293,0.0,2.6,11.71,-9999.0,'1111122,1111122,1111122' 
DISL,ioos:station:DISL:BSCA:1,2014-07-02T10:00:00Z,30.3288,-87.8293,0.0,4.35,1.272,-9999.0,'1111122,1111122,1111122' 
DISL,ioos:station:DISL:BSCA:1,2014-07-02T10:30:00Z,30.3288,-87.8293,0.0,4.29,2.88,-9999.0,'1111122,1111122,1111122' 
DISL,ioos:station:DISL:BSCA:1,2014-07-02T11:00:00Z,30.3288,-87.8293,0.0,4.65,0.342,-9999.0,'1111122,1111122,1111122' 
DISL,ioos:station:DISL:BSCA:1,2014-07-02T11:30:00Z,30.3288,-87.8293,0.0,3.95,3.778,-9999.0,'1111122,1111122,1111122' 
DISL,ioos:station:DISL:BSCA:1,2014-07-02T12:00:00Z,30.3288,-87.8293,0.0,4.54,7.94,-9999.0,'1111122,1111122,1111122' 
DISL,ioos:station:DISL:BSCA:1,2014-07-02T12:30:00Z,30.3288,-87.8293,0.0,5.09,8.85,-9999.0,'1111122,1111122,1111122' 
DISL,ioos:station:DISL:BSCA:1,2014-07-02T13:00:00Z,30.3288,-87.8293,0.0,3.95,28.2,-9999.0,'1111122,1111122,1111122' 
DISL,ioos:station:DISL:BSCA:1,2014-07-02T13:30:00Z,30.3288,-87.8293,0.0,2.4,33.21,-9999.0,'1111122,1111122,1111122' 
DISL,ioos:station:DISL:BSCA:1,2014-07-02T14:00:00Z,30.3288,-87.8293,0.0,2.84,10.79,-9999.0,'1111122,1111122,1111122' 
DISL,ioos:station:DISL:BSCA:1,2014-07-02T14:30:00Z,30.3288,-87.8293,0.0,3.69,3.957,-9999.0,'1111122,1111122,1111122' 
DISL,ioos:station:DISL:BSCA:1,2014-07-02T15:00:00Z,30.3288,-87.8293,0.0,3.75,9.2,-9999.0,'1111122,1111122,1111122' 
DISL,ioos:station:DISL:BSCA:1,2014-07-02T15:30:00Z,30.3288,-87.8293,0.0,3.27,14.22,-9999.0,'1111122,1111122,1111122' 
DISL,ioos:station:DISL:BSCA:1,2014-07-02T16:00:00Z,30.3288,-87.8293,0.0,3.42,25.33,-9999.0,'1111122,1111122,1111122' 
DISL,ioos:station:DISL:BSCA:1,2014-07-02T16:30:00Z,30.3288,-87.8293,0.0,2.27,78.84,-9999.0,'1111122,1111122,1111122' 
DISL,ioos:station:DISL:BSCA:1,2014-07-02T17:00:00Z,30.3288,-87.8293,0.0,0.42,296.8,-9999.0,'1111122,1111122,1111122' 
DISL,ioos:station:DISL:BSCA:1,2014-07-02T17:30:00Z,30.3288,-87.8293,0.0,0.95,217.9,-9999.0,'1111122,1111122,1111122' 
DISL,ioos:station:DISL:BSCA:1,2014-07-02T18:00:00Z,30.3288,-87.8293,0.0,1.48,259.7,-9999.0,'1111122,1111122,1111122' 
DISL,ioos:station:DISL:BSCA:1,2014-07-02T18:30:00Z,30.3288,-87.8293,0.0,3.55,285.4,-9999.0,'1111122,1111122,1111122' 
DISL,ioos:station:DISL:BSCA:1,2014-07-02T19:00:00Z,30.3288,-87.8293,0.0,3.81,286.8,-9999.0,'1111122,1111122,1111122' 
DISL,ioos:station:DISL:BSCA:1,2014-07-02T19:30:00Z,30.3288,-87.8293,0.0,3.86,293.5,-9999.0,'1111122,1111122,1111122' 
DISL,ioos:station:DISL:BSCA:1,2014-07-02T20:00:00Z,30.3288,-87.8293,0.0,3.28,287.9,-9999.0,'1111122,1111122,1111122' 
DISL,ioos:station:DISL:BSCA:1,2014-07-02T20:30:00Z,30.3288,-87.8293,0.0,2.78,266.0,-9999.0,'1111122,1111122,1111122' 
DISL,ioos:station:DISL:BSCA:1,2014-07-02T21:00:00Z,30.3288,-87.8293,0.0,3.5,243.9,-9999.0,'1111122,1111122,1111122' 
DISL,ioos:station:DISL:BSCA:1,2014-07-02T21:30:00Z,30.3288,-87.8293,0.0,4.46,220.3,-9999.0,'1111122,1111122,1111122' 
DISL,ioos:station:DISL:BSCA:1,2014-07-02T22:00:00Z,30.3288,-87.8293,0.0,5.17,231.0,-9999.0,'1111122,1111122,1111122' 
DISL,ioos:station:DISL:BSCA:1,2014-07-02T22:30:00Z,30.3288,-87.8293,0.0,5.71,252.2,-9999.0,'1111122,1111122,1111122' 
DISL,ioos:station:DISL:BSCA:1,2014-07-02T23:00:00Z,30.3288,-87.8293,0.0,5.78,263.7,-9999.0,'1111122,1111122,1111122' 
DISL,ioos:station:DISL:BSCA:1,2014-07-02T23:30:00Z,30.3288,-87.8293,0.0,4.88,259.6,-9999.0,'1111122,1111122,1111122' 
DISL,ioos:station:DISL:BSCA:1,2014-07-03T00:00:00Z,30.3288,-87.8293,0.0,4.96,260.1,-9999.0,'1111122,1111122,1111122' 
DISL,ioos:station:DISL:BSCA:1,2014-07-03T00:30:00Z,30.3288,-87.8293,0.0,5.35,268.8,-9999.0,'1111122,1111122,1111122' 
DISL,ioos:station:DISL:BSCA:1,2014-07-03T01:00:00Z,30.3288,-87.8293,0.0,5.89,270.3,-9999.0,'1111122,1111122,1111122' 
DISL,ioos:station:DISL:BSCA:1,2014-07-03T01:30:00Z,30.3288,-87.8293,0.0,5.06,274.7,-9999.0,'1111122,1111122,1111122' 
DISL,ioos:station:DISL:BSCA:1,2014-07-03T02:00:00Z,30.3288,-87.8293,0.0,5.48,293.4,-9999.0,'1111122,1111122,1111122' 
DISL,ioos:station:DISL:BSCA:1,2014-07-03T02:30:00Z,30.3288,-87.8293,0.0,5.45,291.1,-9999.0,'1111122,1111122,1111122' 
DISL,ioos:station:DISL:BSCA:1,2014-07-03T03:00:00Z,30.3288,-87.8293,0.0,5.58,292.1,-9999.0,'1111122,1111122,1111122' 
DISL,ioos:station:DISL:BSCA:1,2014-07-03T03:30:00Z,30.3288,-87.8293,0.0,8.39,322.7,-9999.0,'1111122,1111122,1111122' 
DISL,ioos:station:DISL:BSCA:1,2014-07-03T04:00:00Z,30.3288,-87.8293,0.0,6.99,352.5,-9999.0,'1111122,1111122,1111122' 
DISL,ioos:station:DISL:BSCA:1,2014-07-03T04:30:00Z,30.3288,-87.8293,0.0,4.92,2.035,-9999.0,'1111122,1111122,1111122' 
DISL,ioos:station:DISL:BSCA:1,2014-07-03T05:00:00Z,30.3288,-87.8293,0.0,5.25,29.08,-9999.0,'1111122,1111122,1111122' 
DISL,ioos:station:DISL:BSCA:1,2014-07-03T05:30:00Z,30.3288,-87.8293,0.0,3.66,29.65,-9999.0,'1111122,1111122,1111122' 
DISL,ioos:station:DISL:BSCA:1,2014-07-03T06:00:00Z,30.3288,-87.8293,0.0,3.73,62.81,-9999.0,'1111122,1111122,1111122' 
DISL,ioos:station:DISL:BSCA:1,2014-07-03T06:30:00Z,30.3288,-87.8293,0.0,4.93,349.8,-9999.0,'1111122,1111122,1111122' 
DISL,ioos:station:DISL:BSCA:1,2014-07-03T07:00:00Z,30.3288,-87.8293,0.0,4.31,8.76,-9999.0,'1111122,1111122,1111122' 
DISL,ioos:station:DISL:BSCA:1,2014-07-03T07:30:00Z,30.3288,-87.8293,0.0,5.64,356.3,-9999.0,'1111122,1111122,1111122' 
DISL,ioos:station:DISL:BSCA:1,2014-07-03T08:00:00Z,30.3288,-87.8293,0.0,4.74,11.51,-9999.0,'1111122,1111122,1111122' 
DISL,ioos:station:DISL:BSCA:1,2014-07-03T08:30:00Z,30.3288,-87.8293,0.0,5.44,22.7,-9999.0,'1111122,1111122,1111122' 
DISL,ioos:station:DISL:BSCA:1,2014-07-03T09:00:00Z,30.3288,-87.8293,0.0,5.27,11.49,-9999.0,'1111122,1111122,1111122' 
DISL,ioos:station:DISL:BSCA:1,2014-07-03T09:30:00Z,30.3288,-87.8293,0.0,4.44,25.52,-9999.0,'1111122,1111122,1111122' 
DISL,ioos:station:DISL:BSCA:1,2014-07-03T10:00:00Z,30.3288,-87.8293,0.0,4.09,26.68,-9999.0,'1111122,1111122,1111122' 
DISL,ioos:station:DISL:BSCA:1,2014-07-03T10:30:00Z,30.3288,-87.8293,0.0,3.14,38.1,-9999.0,'1111122,1111122,1111122' 
DISL,ioos:station:DISL:BSCA:1,2014-07-03T11:00:00Z,30.3288,-87.8293,0.0,4.06,4.595,-9999.0,'1111122,1111122,1111122' 
DISL,ioos:station:DISL:BSCA:1,2014-07-03T11:30:00Z,30.3288,-87.8293,0.0,5.22,2.767,-9999.0,'1111122,1111122,1111122' 
DISL,ioos:station:DISL:BSCA:1,2014-07-03T12:00:00Z,30.3288,-87.8293,0.0,3.37,25.25,-9999.0,'1111122,1111122,1111122' 
DISL,ioos:station:DISL:BSCA:1,2014-07-03T12:30:00Z,30.3288,-87.8293,0.0,2.38,31.41,-9999.0,'1111122,1111122,1111122' 
DISL,ioos:station:DISL:BSCA:1,2014-07-03T13:00:00Z,30.3288,-87.8293,0.0,4.32,17.18,-9999.0,'1111122,1111122,1111122' 
DISL,ioos:station:DISL:BSCA:1,2014-07-03T13:30:00Z,30.3288,-87.8293,0.0,4.05,26.03,-9999.0,'1111122,1111122,1111122' 
DISL,ioos:station:DISL:BSCA:1,2014-07-03T14:00:00Z,30.3288,-87.8293,0.0,4.65,18.43,-9999.0,'1111122,1111122,1111122' 
DISL,ioos:station:DISL:BSCA:1,2014-07-03T14:30:00Z,30.3288,-87.8293,0.0,3.34,46.67,-9999.0,'1111122,1111122,1111122' 
DISL,ioos:station:DISL:BSCA:1,2014-07-03T15:00:00Z,30.3288,-87.8293,0.0,3.61,24.22,-9999.0,'1111122,1111122,1111122' 
DISL,ioos:station:DISL:BSCA:1,2014-07-03T15:30:00Z,30.3288,-87.8293,0.0,3.8,9.68,-9999.0,'1111122,1111122,1111122' 
DISL,ioos:station:DISL:BSCA:1,2014-07-03T16:00:00Z,30.3288,-87.8293,0.0,3.64,11.8,-9999.0,'1111122,1111122,1111122' 
DISL,ioos:station:DISL:BSCA:1,2014-07-03T16:30:00Z,30.3288,-87.8293,0.0,2.7,6.703,-9999.0,'1111122,1111122,1111122' 
DISL,ioos:station:DISL:BSCA:1,2014-07-03T17:00:00Z,30.3288,-87.8293,0.0,4.11,353.3,-9999.0,'1111122,1111122,1111122' 
DISL,ioos:station:DISL:BSCA:1,2014-07-03T17:30:00Z,30.3288,-87.8293,0.0,4.04,344.1,-9999.0,'1111122,1111122,1111122' 
DISL,ioos:station:DISL:BSCA:1,2014-07-03T18:00:00Z,30.3288,-87.8293,0.0,3.66,342.8,-9999.0,'1111122,1111122,1111122' 
DISL,ioos:station:DISL:BSCA:1,2014-07-03T18:30:00Z,30.3288,-87.8293,0.0,2.47,315.3,-9999.0,'1111122,1111122,1111122' 
DISL,ioos:station:DISL:BSCA:1,2014-07-03T19:00:00Z,30.3288,-87.8293,0.0,4.58,318.1,-9999.0,'1111122,1111122,1111122' 
DISL,ioos:station:DISL:BSCA:1,2014-07-03T19:30:00Z,30.3288,-87.8293,0.0,5.62,312.2,-9999.0,'1111122,1111122,1111122' 
DISL,ioos:station:DISL:BSCA:1,2014-07-03T20:00:00Z,30.3288,-87.8293,0.0,5.82,317.0,-9999.0,'1111122,1111122,1111122' 
DISL,ioos:station:DISL:BSCA:1,2014-07-03T20:30:00Z,30.3288,-87.8293,0.0,6.07,323.2,-9999.0,'1111122,1111122,1111122' 
DISL,ioos:station:DISL:BSCA:1,2014-07-03T21:00:00Z,30.3288,-87.8293,0.0,5.75,330.1,-9999.0,'1111122,1111122,1111122' 
DISL,ioos:station:DISL:BSCA:1,2014-07-03T21:30:00Z,30.3288,-87.8293,0.0,5.84,339.1,-9999.0,'1111122,1111122,1111122' 
DISL,ioos:station:DISL:BSCA:1,2014-07-03T22:00:00Z,30.3288,-87.8293,0.0,7.05,348.7,-9999.0,'1111122,1111122,1111122' 
DISL,ioos:station:DISL:BSCA:1,2014-07-03T22:30:00Z,30.3288,-87.8293,0.0,7.19,347.0,-9999.0,'1111122,1111122,1111122' 
DISL,ioos:station:DISL:BSCA:1,2014-07-03T23:00:00Z,30.3288,-87.8293,0.0,6.94,2.598,-9999.0,'1111122,1111122,1111122' 
DISL,ioos:station:DISL:BSCA:1,2014-07-03T23:30:00Z,30.3288,-87.8293,0.0,4.97,6.6,-9999.0,'1111122,1111122,1111122' 
DISL,ioos:station:DISL:BSCA:1,2014-07-04T00:00:00Z,30.3288,-87.8293,0.0,3.35,8.71,-9999.0,'1111122,1111122,1111122' 
DISL,ioos:station:DISL:BSCA:1,2014-07-04T00:30:00Z,30.3288,-87.8293,0.0,2.86,8.83,-9999.0,'1111122,1111122,1111122' 
DISL,ioos:station:DISL:BSCA:1,2014-07-04T01:00:00Z,30.3288,-87.8293,0.0,3.97,9.09,-9999.0,'1111122,1111122,1111122' 
DISL,ioos:station:DISL:BSCA:1,2014-07-04T01:30:00Z,30.3288,-87.8293,0.0,3.51,21.61,-9999.0,'1111122,1111122,1111122' 
DISL,ioos:station:DISL:BSCA:1,2014-07-04T02:00:00Z,30.3288,-87.8293,0.0,3.36,29.85,-9999.0,'1111122,1111122,1111122' 
DISL,ioos:station:DISL:BSCA:1,2014-07-04T02:30:00Z,30.3288,-87.8293,0.0,3.53,16.26,-9999.0,'1111122,1111122,1111122' 
DISL,ioos:station:DISL:BSCA:1,2014-07-04T03:00:00Z,30.3288,-87.8293,0.0,4.39,14.78,-9999.0,'1111122,1111122,1111122' 
DISL,ioos:station:DISL:BSCA:1,2014-07-04T03:30:00Z,30.3288,-87.8293,0.0,4.28,17.35,-9999.0,'1111122,1111122,1111122' 
DISL,ioos:station:DISL:BSCA:1,2014-07-04T04:00:00Z,30.3288,-87.8293,0.0,3.67,21.85,-9999.0,'1111122,1111122,1111122' 
DISL,ioos:station:DISL:BSCA:1,2014-07-04T04:30:00Z,30.3288,-87.8293,0.0,3.32,14.69,-9999.0,'1111122,1111122,1111122' 
DISL,ioos:station:DISL:BSCA:1,2014-07-04T05:00:00Z,30.3288,-87.8293,0.0,3.49,23.96,-9999.0,'1111122,1111122,1111122' 
DISL,ioos:station:DISL:BSCA:1,2014-07-04T05:30:00Z,30.3288,-87.8293,0.0,2.82,38.06,-9999.0,'1111122,1111122,1111122' 
DISL,ioos:station:DISL:BSCA:1,2014-07-04T06:00:00Z,30.3288,-87.8293,0.0,3.82,35.61,-9999.0,'1111122,1111122,1111122' 
DISL,ioos:station:DISL:BSCA:1,2014-07-04T06:30:00Z,30.3288,-87.8293,0.0,3.45,38.92,-9999.0,'1111122,1111122,1111122' 
DISL,ioos:station:DISL:BSCA:1,2014-07-04T07:00:00Z,30.3288,-87.8293,0.0,4.11,37.35,-9999.0,'1111122,1111122,1111122' 
DISL,ioos:station:DISL:BSCA:1,2014-07-04T07:30:00Z,30.3288,-87.8293,0.0,4.49,34.14,-9999.0,'1111122,1111122,1111122' 
DISL,ioos:station:DISL:BSCA:1,2014-07-04T08:00:00Z,30.3288,-87.8293,0.0,4.74,36.2,-9999.0,'1111122,1111122,1111122' 
DISL,ioos:station:DISL:BSCA:1,2014-07-04T08:30:00Z,30.3288,-87.8293,0.0,4.72,40.37,-9999.0,'1111122,1111122,1111122' 
DISL,ioos:station:DISL:BSCA:1,2014-07-04T09:00:00Z,30.3288,-87.8293,0.0,4.63,41.93,-9999.0,'1111122,1111122,1111122' 
DISL,ioos:station:DISL:BSCA:1,2014-07-04T09:30:00Z,30.3288,-87.8293,0.0,5.33,33.28,-9999.0,'1111122,1111122,1111122' 
DISL,ioos:station:DISL:BSCA:1,2014-07-04T10:00:00Z,30.3288,-87.8293,0.0,5.24,39.41,-9999.0,'1111122,1111122,1111122' 
DISL,ioos:station:DISL:BSCA:1,2014-07-04T10:30:00Z,30.3288,-87.8293,0.0,4.78,41.79,-9999.0,'1111122,1111122,1111122' 
DISL,ioos:station:DISL:BSCA:1,2014-07-04T11:00:00Z,30.3288,-87.8293,0.0,4.43,44.32,-9999.0,'1111122,1111122,1111122' 
DISL,ioos:station:DISL:BSCA:1,2014-07-04T11:30:00Z,30.3288,-87.8293,0.0,4.7,42.55,-9999.0,'1111122,1111122,1111122' 
DISL,ioos:station:DISL:BSCA:1,2014-07-04T12:00:00Z,30.3288,-87.8293,0.0,4.49,36.58,-9999.0,'1111122,1111122,1111122' 
DISL,ioos:station:DISL:BSCA:1,2014-07-04T12:30:00Z,30.3288,-87.8293,0.0,5.18,40.71,-9999.0,'1111122,1111122,1111122' 
DISL,ioos:station:DISL:BSCA:1,2014-07-04T13:00:00Z,30.3288,-87.8293,0.0,4.78,51.56,-9999.0,'1111122,1111122,1111122' 
DISL,ioos:station:DISL:BSCA:1,2014-07-04T13:30:00Z,30.3288,-87.8293,0.0,5.12,46.73,-9999.0,'1111122,1111122,1111122' 
DISL,ioos:station:DISL:BSCA:1,2014-07-04T14:00:00Z,30.3288,-87.8293,0.0,3.61,53.31,-9999.0,'1111122,1111122,1111122' 
DISL,ioos:station:DISL:BSCA:1,2014-07-04T14:30:00Z,30.3288,-87.8293,0.0,3.58,60.16,-9999.0,'1111122,1111122,1111122' 
DISL,ioos:station:DISL:BSCA:1,2014-07-04T15:00:00Z,30.3288,-87.8293,0.0,2.97,46.91,-9999.0,'1111122,1111122,1111122' 
DISL,ioos:station:DISL:BSCA:1,2014-07-04T15:30:00Z,30.3288,-87.8293,0.0,4.44,24.51,-9999.0,'1111122,1111122,1111122' 
DISL,ioos:station:DISL:BSCA:1,2014-07-04T16:00:00Z,30.3288,-87.8293,0.0,3.88,16.07,-9999.0,'1111122,1111122,1111122' 
DISL,ioos:station:DISL:BSCA:1,2014-07-04T16:30:00Z,30.3288,-87.8293,0.0,3.57,349.1,-9999.0,'1111122,1111122,1111122' 
DISL,ioos:station:DISL:BSCA:1,2014-07-04T17:00:00Z,30.3288,-87.8293,0.0,3.99,309.3,-9999.0,'1111122,1111122,1111122' 
DISL,ioos:station:DISL:BSCA:1,2014-07-04T17:30:00Z,30.3288,-87.8293,0.0,6.21,304.7,-9999.0,'1111122,1111122,1111122' 
DISL,ioos:station:DISL:BSCA:1,2014-07-04T18:00:00Z,30.3288,-87.8293,0.0,6.15,309.7,-9999.0,'1111122,1111122,1111122' 
DISL,ioos:station:DISL:BSCA:1,2014-07-04T18:30:00Z,30.3288,-87.8293,0.0,5.82,308.5,-9999.0,'1111122,1111122,1111122' 
DISL,ioos:station:DISL:BSCA:1,2014-07-04T19:00:00Z,30.3288,-87.8293,0.0,5.81,319.2,-9999.0,'1111122,1111122,1111122' 
DISL,ioos:station:DISL:BSCA:1,2014-07-04T19:30:00Z,30.3288,-87.8293,0.0,5.66,318.5,-9999.0,'1111122,1111122,1111122' 
DISL,ioos:station:DISL:BSCA:1,2014-07-04T20:00:00Z,30.3288,-87.8293,0.0,5.2,321.4,-9999.0,'1111122,1111122,1111122' 
DISL,ioos:station:DISL:BSCA:1,2014-07-04T20:30:00Z,30.3288,-87.8293,0.0,4.25,327.2,-9999.0,'1111122,1111122,1111122' 
DISL,ioos:station:DISL:BSCA:1,2014-07-04T21:00:00Z,30.3288,-87.8293,0.0,5.47,341.1,-9999.0,'1111122,1111122,1111122' 
DISL,ioos:station:DISL:BSCA:1,2014-07-04T21:30:00Z,30.3288,-87.8293,0.0,5.29,337.7,-9999.0,'1111122,1111122,1111122' 
DISL,ioos:station:DISL:BSCA:1,2014-07-04T22:00:00Z,30.3288,-87.8293,0.0,6.32,344.4,-9999.0,'1111122,1111122,1111122' 
DISL,ioos:station:DISL:BSCA:1,2014-07-04T22:30:00Z,30.3288,-87.8293,0.0,5.5,358.1,-9999.0,'1111122,1111122,1111122' 
DISL,ioos:station:DISL:BSCA:1,2014-07-04T23:00:00Z,30.3288,-87.8293,0.0,4.13,14.23,-9999.0,'1111122,1111122,1111122' 
DISL,ioos:station:DISL:BSCA:1,2014-07-04T23:30:00Z,30.3288,-87.8293,0.0,4.94,12.57,-9999.0,'1111122,1111122,1111122' 
DISL,ioos:station:DISL:BSCA:1,2014-07-05T00:00:00Z,30.3288,-87.8293,0.0,3.74,29.5,-9999.0,'1111122,1111122,1111122' 
DISL,ioos:station:DISL:BSCA:1,2014-07-05T00:30:00Z,30.3288,-87.8293,0.0,3.91,23.64,-9999.0,'1111122,1111122,1111122' 
DISL,ioos:station:DISL:BSCA:1,2014-07-05T01:00:00Z,30.3288,-87.8293,0.0,4.79,18.62,-9999.0,'1111122,1111122,1111122' 
DISL,ioos:station:DISL:BSCA:1,2014-07-05T01:30:00Z,30.3288,-87.8293,0.0,3.84,29.49,-9999.0,'1111122,1111122,1111122' 
DISL,ioos:station:DISL:BSCA:1,2014-07-05T02:00:00Z,30.3288,-87.8293,0.0,4.2,27.12,-9999.0,'1111122,1111122,1111122' 
DISL,ioos:station:DISL:BSCA:1,2014-07-05T02:30:00Z,30.3288,-87.8293,0.0,4.35,26.4,-9999.0,'1111122,1111122,1111122' 
DISL,ioos:station:DISL:BSCA:1,2014-07-05T03:00:00Z,30.3288,-87.8293,0.0,4.71,28.28,-9999.0,'1111122,1111122,1111122' 
DISL,ioos:station:DISL:BSCA:1,2014-07-05T03:30:00Z,30.3288,-87.8293,0.0,4.34,29.47,-9999.0,'1111122,1111122,1111122' 
DISL,ioos:station:DISL:BSCA:1,2014-07-05T04:00:00Z,30.3288,-87.8293,0.0,5.2,21.44,-9999.0,'1111122,1111122,1111122' 
DISL,ioos:station:DISL:BSCA:1,2014-07-05T04:30:00Z,30.3288,-87.8293,0.0,4.08,35.41,-9999.0,'1111122,1111122,1111122' 